Regional Weather Roundup
Issued by NWS

Home | Current Version | Previous Version | Text Only | Print | Product List | Glossary On
Versions: 1 2 3 4 5 6 7 8 9 10 11 12 13 14 15 16 17 18 19 20 21 22 23 24 25 26 27 28 29 30 31 32 33 34 35 36 37 38 39 40 41 42 43 44 45 46 47 48 49 50
000
ASUS45 KREV 251610
RWRNV
NEVADA REGIONAL WEATHER ROUNDUP
NATIONAL WEATHER SERVICE RENO NV
800 AM PST SUN JAN 25 2015

NOTE: "FAIR" INDICATES FEW OR NO CLOUDS BELOW 12,000 FEET WITH NO
SIGNIFICANT WEATHER AND/OR OBSTRUCTIONS TO VISIBILITY.

NVZ001-003-004-251700-
WESTERN NEVADA

CITY           SKY/WX    TMP DP  RH WIND       PRES   REMARKS
RENO           PTCLDY    29  20  69 CALM      30.43F
CARSON CITY    FAIR      25  16  68 CALM      30.45S
SLIDE MTN        N/A     41  21  45 E33         N/A
PYRAMID LAKE     N/A     39 N/A N/A S3          N/A
FALLON         PTCLDY    25  13  60 SW5       30.44S
LOVELOCK       MOCLDY    19   8  62 CALM      30.44S
HAWTHORNE      CLEAR     30  21  69 CALM      30.45F
$$

NVZ002-CAZ072-073-251700-
NORTHERN AND CENTRAL SIERRA

CITY           SKY/WX    TMP DP  RH WIND       PRES   REMARKS
S. LAKE TAHOE  CLEAR     29  22  75 S5        30.39S
TRUCKEE        PTCLDY    19  16  86 CALM      30.42F
SQUAW VLY 8000   N/A     39  27  60 CALM        N/A
SUSANVILLE     CLEAR     30  27  86 W5        30.43
BLUE CANYON    CLEAR     61  20  20 E8G21     30.29R
MAMMOTH LAKES  FAIR      23  16  74 N3        30.46S
BRIDGEPORT     FAIR      20  12  71 CALM      30.42S
$$

NVZ030-031-036-251700-
NORTHERN NEVADA

CITY           SKY/WX    TMP DP  RH WIND       PRES   REMARKS
ELKO           CLEAR     26  22  84 NE6       30.46R
WINNEMUCCA     MOCLDY    24  20  84 CALM      30.43
WENDOVER       MOSUNNY   27  19  74 CALM      30.47S
$$

NVZ035-037-251700-
CENTRAL NEVADA

CITY           SKY/WX    TMP DP  RH WIND       PRES   REMARKS
ELY            MOSUNNY   25  22  88 S3        30.47R
EUREKA           N/A     28  24  85 SW3       30.46S
$$

NVZ013-014-251700-
SOUTH CENTRAL NEVADA

CITY           SKY/WX    TMP DP  RH WIND       PRES   REMARKS
TONOPAH        PTCLDY    33  23  66 E5        30.41R
$$

NVZ017-020-022-251700-
SOUTHERN NEVADA

CITY           SKY/WX    TMP DP  RH WIND       PRES   REMARKS
LAS VEGAS      SUNNY     50  26  39 SW8       30.25S
N. LAS VEGAS   SUNNY     50  24  36 NW8       30.28F
NELLIS AFB     SUNNY     48  28  46 NW2       30.29S
HENDERSON      SUNNY     48  30  49 S5        30.31R
MERCURY        SUNNY     53  28  38 NE15      30.29R
$$


USA.gov is the U.S. government's official web portal to all federal, state and local government web resources and services.